Content
SEND FEEDBACK

Daily
Averages
Monthly
Summary
United States of America

EUREKA, CALIFORNIA


Home > North America > United States > California
Elevation: 59 feet     Latitude: 40 48N     Longitude: 124 07W

WEATHER
 
SELECT A DAY
Number of Records: 239,590;   Date Range: 1/1/95 - 7/26/14
 
SHARE

PRINT THIS DATA

[ ← Previous Day ]
WEATHER ALMANAC - FEBRUARY 17, 2013
[ Next Day → ]
[ °C ]   °F
Weather ElementAverageHighLow
Temperature41 °F51.1 °F (12:53 pm)30 °F (6:53 am)
Dewpoint37.1 °F39.9 °F (9:53 am)30 °F (6:53 am)
Humidity87.3 %100 % (1:41 am)61 % (11:53 am)
Barometer30.16 in30.22 in (1:53 am)30.11 in (8:48 pm)
Wind Speed5.1 mph19.6 mph (2:53 pm)
Weather ElementAverage
Visibility8.6 mi
Wind DirectionSE (133.5 °)

Weather ElementTotal
Precipitation---
Heating Degree Days24.5 (Base 65)
Averaged from 26 records on February 17, 2013
WEATHER CONDITIONS BREAKOUT
WIND DIRECTION BREAKOUT
WEATHER BY HOUR - FEBRUARY 17, 2013
[ °C ]   °F
Local TimeTemperatureDewpointHumidityBarometerVisibilityWind DirectionWind SpeedGust SpeedPrecipitationEventsConditions
1:41 AM37.4 °F37.4 °F100 %30.20 in9.0 miNE (50°)3.5 mphMostly Cloudy
1:53 AM39.0 °F39.0 °F100 %30.22 in10.0 miNE (40°)3.5 mphOvercast
2:53 AM39.9 °F37.9 °F93 %30.22 in10.0 miCalmScattered Clouds
3:53 AM36.0 °F36.0 °F100 %30.20 in3.0 miCalmClear
4:01 AM37.4 °F35.6 °F93 %30.18 in2.5 miCalmClear
4:08 AM35.6 °F35.6 °F100 %30.18 in9.0 miNE (50°)3.5 mphClear
4:53 AM34.0 °F33.1 °F96 %30.21 in9.0 miCalmClear
5:53 AM30.9 °F30.9 °F100 %30.19 in7.0 miCalmClear
6:53 AM30.0 °F30.0 °F100 %30.20 in9.0 miEast (90°)3.5 mphClear
7:53 AM33.1 °F33.1 °F100 %30.19 in10.0 miCalmClear
8:53 AM41.0 °F39.0 °F93 %30.19 in10.0 miCalmClear
9:53 AM44.1 °F39.9 °F85 %30.19 in9.0 miCalmClear
10:53 AM48.0 °F37.9 °F68 %30.18 in9.0 miNNW (340°)8.1 mphClear
11:53 AM50.0 °F37.0 °F61 %30.18 in10.0 miNNW (330°)13.8 mphClear
12:53 PM51.1 °F37.9 °F61 %30.15 in10.0 miNNW (330°)16.1 mphClear
1:53 PM50.0 °F39.9 °F68 %30.14 in10.0 miNNW (330°)16.1 mphClear
2:53 PM48.9 °F39.9 °F71 %30.14 in10.0 miNNW (330°)19.6 mphClear
3:53 PM48.9 °F39.9 °F71 %30.13 in10.0 miNNW (340°)13.8 mphClear
4:53 PM48.0 °F39.9 °F74 %30.12 in10.0 miNorth (350°)11.5 mphClear
5:53 PM44.1 °F37.9 °F79 %30.12 in10.0 miNorth (360°)5.8 mphClear
6:53 PM42.1 °F39.0 °F89 %30.13 in8.0 miNorth (350°)5.8 mphClear
7:53 PM39.0 °F37.0 °F93 %30.13 in9.0 miCalmClear
8:48 PM37.4 °F35.6 °F93 %30.11 in7.0 miEast (90°)3.5 mphMostly Cloudy
9:53 PM39.0 °F37.9 °F96 %30.13 in7.0 miEast (90°)3.5 mphOvercast
10:53 PM41.0 °F39.0 °F93 %30.13 in7.0 miCalmOvercast
11:53 PM41.0 °F39.0 °F93 %30.11 in9.0 miCalmOvercast
Hourly data recorded from KACV, located miles away from Eureka, California







STORIES FROM OUR PARTNERS